Location: 22
(39.7117°N, 89.5929°W)
Time: 09:25:29
(UTC-05:00)

S-56A Canister/Altair - Pass Details

Date: 14 February 2023
Orbit: 638 x 2493 km, 38.9° (Epoch: 25 March)

Event Time Altitude Azimuth Distance (km) Brightness Sun altitude
Rises 07:39:42 0° 245° (WSW) 3,684 10.6 7.7°
Reaches altitude 10° 07:42:41 10° 241° (WSW) 2,508 9.9 8.3°
Maximum altitude 07:48:09 56° 164° (SSE) 840 8.3 9.2°
Drops below altitude 10° 07:52:35 10° 86° (E) 2,039 10.9 10.0°
Sets 07:54:47 0° 82° (E) 2,930 11.5 10.4°
